Printer-friendly version
Follow the MPC on Twitter Follow the MPC on Facebook The MPC blog
Minor Planet Center

MPEC 2003-P17 : COMET C/2003 H2 (LINEAR)

The following Minor Planet Electronic Circular may be linked-to from your own Web pages, but must not otherwise be redistributed electronically.

A form allowing access to any MPEC is at the bottom of this page.


Read MPEC 2003-P16 Read MPEC 2003-P18


M.P.E.C. 2003-P17                                Issued 2003 Aug. 5, 19:56 UT

     The Minor Planet Electronic Circulars contain information on unusual
         minor planets and routine data on comets.  They are published
   on behalf of Commission 20 of the International Astronomical Union by the
          Minor Planet Center, Smithsonian Astrophysical Observatory,
                          Cambridge, MA 02138, U.S.A.

             Prepared using the Tamkin Foundation Computer Network

                              MPC@CFA.HARVARD.EDU
          URL http://cfa-www.harvard.edu/iau/mpc.html  ISSN 1523-6714

                           COMET C/2003 H2 (LINEAR)

Observations:
    CK03H020  C2003 07 07.53438 15 57 19.30 -14 31 02.1          18.2 T      360
    CK03H020  C2003 07 07.53684 15 57 18.98 -14 31 07.0                      360
    CK03H020  C2003 07 07.53970 15 57 18.69 -14 31 13.0                      360
    CK03H020  C2003 08 02.43453 15 30 44.13 -26 52 20.8          18.5 N      E14
    CK03H020  C2003 08 02.44163 15 30 44.17 -26 52 31.4          18.1 N      E14
    CK03H020  C2003 08 02.44873 15 30 43.91 -26 52 39.3          19.1 N      E14

Observer details:
360 Kuma Kogen.  Observer A. Nakamura.  0.60-m f/5.8 Ritchey-Chretien + CCD.
E14 Ngunnawal.  Observer D. Higgins.  0.25-m f/5 Schmidt-Cassegrain + CCD.

Orbital elements:
    C/2003 H2 (LINEAR)
Epoch 2003 May 1.0 TT = JDT 2452760.5
T 2003 May 17.97116 TT                                  MPC
q   2.1785469            (2000.0)            P               Q
z  +0.0261722      Peri.  155.08304     -0.27279638     +0.16844369
 +/-0.0000000      Node    79.83763     -0.96174902     -0.07324767
e   0.9429826      Incl.   74.21896     +0.02491902     -0.98298601
Residuals in seconds of arc
030424 704  0.2-  0.4+    030506 118  0.9-  1.5+    030601 333  0.3-  1.1-
030424 704  1.5+  1.8-    030506 118 (0.1-  2.4+)   030601 333  0.5-  0.4+
030424 704  0.8-  0.7+    030506 561  1.8-  0.9-    030601 333  0.3-  0.9-
030424 704  0.1+  0.2-    030506 561  1.1+  1.8+    030601 333  0.2-  0.4-
030424 246  0.1+  0.3-    030506 561  0.1-  0.1+    030601 333  0.6+  0.6-
030424 246  0.4+  0.4+    030506 J95  0.4-  0.5+    030601 333  0.5-  0.7-
030424 246  0.2+  0.0     030506 J95  0.5-  0.2-    030601 333 (4.9-  4.3-)
030424 246  0.3+  0.3+    030506 J95  0.5-  0.1-    030601 360  0.4-  0.3+
030424 246  0.2-  0.1-    030509 360  0.0   0.0     030601 360  0.1+  0.2+
030424 246  0.2+  0.1+    030509 360  0.0   0.1+    030603 118  0.4-  0.9+
030425 106  1.0-  0.3+    030510 J87  0.6-  0.1-    030603 118  0.2-  0.1-
030425 106  0.7+  0.2-    030510 J87 (3.0-  3.2-)   030603 118  0.0   0.7+
030425 557  0.1+  0.2-    030510 J87  1.9-  1.6-    030603 H72  1.1+  0.2+
030425 557  0.0   0.7-    030511 213  1.5-  0.1-    030603 H72  0.2+  1.1-
030425 557  0.4+  0.9-    030511 213 (6.2-  2.8-)   030603 H72  0.8+  1.0-
030425 854  0.5-  0.4-    030512 704  0.1+  0.2-    030603 H72 (3.0-  1.6-)
030425 854  1.7+  1.2-    030512 704  1.9+  1.8-    030604 246  0.6+  0.8+
030425 854  1.9+  1.4-    030512 704  0.5+  0.6-    030604 246  0.5+  0.6+
030425 854  0.6+  0.1-    030512 704  0.3+  0.5-    030604 246  0.4+  0.2+
030425 704  1.5-  0.0     030518 859 (1.6-  3.4-)   030604 246  0.0   0.0
030425 926 (0.7+  2.8+)   030518 859  1.9-  0.1-    030604 246  0.0   0.2-
030425 704  0.9-  0.5-    030518 859 (2.9+  0.4+)   030604 H41 (4.6+  0.6-)
030425 926  0.3+  0.2+    030522 620  0.8-  0.5+    030604 H41 (4.1+  0.8+)
030425 926  1.2+  0.9-    030522 620  0.2-  0.2-    030604 213 (2.0-  2.8-)
030425 704  0.3-  0.1+    030523 620  0.7-  0.0     030604 213 (5.9-  4.0-)
030425 704  1.6-  1.0+    030523 620  0.3-  0.6+    030605 360  0.4-  0.1+
030425 474  0.8+  1.0+    030523 360  0.4-  0.2-    030605 360  0.6-  0.2+
030425 474  0.9+  0.2-    030523 360  0.1-  0.1+    030608 213 (2.4-  2.0-)
030425 474  0.2-  0.3-    030523 118  0.7+  1.1+    030608 213  1.7+  0.2+
030426 213  0.0   0.5+    030523 118  0.3-  0.4+    030608 H41  0.2+  0.6-
030426 213 (3.6+  3.5+)   030523 118  0.4-  0.7+    030608 H41  0.2+  0.2-
030426 213  0.7+  0.3+    030523 118  0.5-  0.6-    030608 H41  1.6-  0.6-
030426 704  0.6-  1.2-    030524 H41  0.8-  0.1-    030609 704  1.9-  1.2-
030426 704  0.5+  1.0-    030525 246  0.3-  0.1+    030609 704  0.5+  0.5-
030426 704  0.0   0.5+    030525 246  0.3+  0.4+    030609 H41  0.6+  1.2+
030427 170  0.3-  1.0-    030525 246  0.1+  0.4+    030609 704  0.2+  1.2-
030427 170  0.2-  1.1-    030525 246  0.3+  0.2+    030609 H41 (3.2+  0.3+)
030427 J95  0.2-  0.9+    030525 246  0.0   0.2+    030620 215  0.7-  0.0
030427 J95  1.9+  0.4-    030525 246  0.1+  0.0     030620 215  0.4-  0.1+
030428 785  0.1-  0.9+    030525 118  0.7+  0.2+    030620 215  0.5-  0.2+
030428 785  2.0-  0.9-    030525 118  0.4-  0.4+    030621 213  0.2+  0.4+
030428 926  1.4-  0.3+    030525 118  0.3-  0.0     030621 213  0.1-  1.6+
030428 926  0.5+  0.5+    030525 118  0.4+  0.3+    030622 H41  0.0   0.4-
030429 785 (4.5-  0.5+)   030525 118  0.0   0.3+    030622 H41  1.1+  1.2+
030429 785  0.0   0.1+    030526 J95  0.2+  0.1+    030623 H41  0.7+  0.5-
030429 704  0.8+  1.8+    030526 J95  0.6-  0.2-    030624 H41 (2.5+  1.5-)
030429 704  1.4+  0.4+    030526 J95  0.5+  0.1+    030624 H41  1.3+  0.5+
030429 704  0.2-  0.4+    030526 H41  0.1+  1.4+    030625 246  0.6+  0.1+
030429 704  0.7+  0.8+    030527 H41  0.2+  0.7-    030625 246  0.5+  0.1-
030430 360  0.3-  0.0     030527 118  0.1-  0.0     030625 246  0.2+  0.2+
030430 360  0.3-  0.3+    030527 118  0.8-  0.1-    030625 246  0.2+  0.1+
030503 213 (3.0-  2.5-)   030527 118  0.0   0.4-    030625 246  0.1+  0.3-
030503 850  0.5-  0.7-    030528 H41  0.6+  0.5+    030625 246  0.1-  0.2-
030503 850  1.5+  0.6+    030528 H41  0.4+  1.4+    030627 H41  1.1-  0.3+
030503 850  0.8+  0.4-    030529 750  0.1-  0.3-    030628 H41  0.1+  1.0+
030503 850  1.4+  0.0     030529 750  1.0-  0.7-    030628 H41  0.7-  0.4+
030504 159 (2.8+  1.5+)   030530 246  0.4-  0.0     030701 704  0.6-  0.5+
030504 159 (1.5-  2.4+)   030530 246  0.2-  0.1-    030701 704  2.0+  1.6-
030504 159 (2.5-  0.9-)   030530 246  0.3-  0.0     030701 704  0.3+  0.2+
030504 204  0.3-  0.5+    030530 246  0.2-  0.1-    030701 704  0.9+  0.1-
030504 204  1.5+  0.5+    030530 246  0.0   0.1-    030701 704  0.3-  0.1-
030504 204  0.6-  0.1-    030530 246  0.2+  0.3-    030702 H41  0.0   0.1-
030504 204  0.9+  0.5-    030531 H41  1.4+  0.0     030702 H41 (1.1+  3.6+)
030504 204 (2.2+  0.8+)   030531 H41  0.9-  0.5+    030707 360  0.2+  0.4-
030505 785  1.9+  0.3-    030531 H72 (0.5-  2.0-)   030707 360  0.8-  0.0
030505 785  0.6-  0.1+    030531 H72 (2.1-  1.3+)   030707 360  0.8-  0.0
030505 360  0.5-  0.3-    030531 H72 (0.8+  5.7-)   030802 E14  0.9-  1.5-
030505 360  0.4-  0.6-    030531 H72 (1.2-  2.4-)   030802 E14 (2.3+  2.4-)
030506 118  1.3-  1.0+    030531 H72 (1.9-  3.1-)   030802 E14  1.5+  0.7-
030506 118  0.1-  1.0+    030601 333  0.4-  0.1+

     The "original" and "future" barycentric values of 1/a are +0.026849
and +0.026146 (+/- 0.000000) AU**-1, respectively.

Brian G. Marsden             (C) Copyright 2003 MPC           M.P.E.C. 2003-P17

Read MPEC 2003-P16 Read MPEC 2003-P18


MPEC number:

Enter an MPEC number in one of the following forms:

  • 1997-B01 (the full form)
  • J97B01 (the packed version of the full form)
  • B01 (the abbreviated form)

Valid HTML 4.01!